Port Edwards, WI

7:22 AM CDT on September 25, 2016 (GMT -0500)
Alexander Field South Wood County

Weather History for KISW - July, 2013

Change the Weather History Date:

Friday, July 5, 2013

  Actual Average Record
Temperature  
Mean Temperature 74 °F -  
Max Temperature 87 °F 81 °F 100 °F (2012)
Min Temperature 61 °F 56 °F 42 °F (1970)
Cooling Degree Days 8    
Growing Degree Days 24 (Base 50)    
Moisture  
Dew Point 59 °F    
Average Humidity 62    
Maximum Humidity 90    
Minimum Humidity 35    
Precipitation  
Precipitation 0.00 in - - ()
Sea Level Pressure  
Sea Level Pressure 30.00 in    
Wind  
Wind Speed 6 mph (South)    
Max Wind Speed 16 mph    
Max Gust Speed 25 mph    
Visibility 10 miles    
Events      
Averages and records for this station are not official NWS values.
T = Trace of Precipitation, MM = Missing Value Source: NWS Daily Summary

Daily Weather History Graph

Daily Weather History Graph

Search for Another Location

Airport or City:

Trip Planner

Search our weather history database for the weather conditions in past years. The results will help you decide how hot, cold, wet, or windy it might be!

Date:

Astronomy

Jul. 05, 2013 Rise Set
Actual Time 5:21 AM CDT 8:46 PM CDT
Civil Twilight 4:45 AM CDT 9:22 PM CDT
Nautical Twilight 3:57 AM CDT 10:09 PM CDT
Astronomical Twilight 2:57 AM CDT 11:09 PM CDT
Moon 3:23 AM CDT (7/5) 6:39 PM CDT (7/5)
Length of Visible Light 16h 36m
Length of Day
15h 24m
Waning Crescent, 6% of the Moon is Illuminated
Jul 5
Waning Crescent
Jul 8
New
Jul 15
First Quarter
Jul 22
Full
Jul 29
Last Quarter

Hourly Weather History & Observations

Time (CDT) Temp. Heat Index Dew Point Humidity Pressure Visibility Wind Dir Wind Speed Gust Speed Precip Events Conditions
12:54 AM 64.9 °F - 59.0 °F 81% 30.02 in 10.0 mi SSE 3.5 mph - N/A   Clear
1:54 AM 64.0 °F - 59.0 °F 84% 30.01 in 10.0 mi South 4.6 mph - N/A   Clear
2:54 AM 63.0 °F - 59.0 °F 87% 30.01 in 10.0 mi South 5.8 mph - N/A   Clear
3:54 AM 63.0 °F - 59.0 °F 87% 30.01 in 10.0 mi South 4.6 mph - N/A   Clear
4:54 AM 61.0 °F - 57.9 °F 90% 30.01 in 10.0 mi Calm Calm - N/A   Clear
5:54 AM 61.0 °F - 57.9 °F 90% 30.02 in 10.0 mi South 3.5 mph - N/A   Clear
6:54 AM 66.0 °F - 60.1 °F 81% 30.02 in 10.0 mi South 5.8 mph - N/A   Clear
7:54 AM 70.0 °F - 61.0 °F 73% 30.03 in 10.0 mi South 4.6 mph - N/A   Clear
8:54 AM 75.0 °F - 62.1 °F 64% 30.04 in 10.0 mi SSW 6.9 mph - N/A   Clear
9:54 AM 78.1 °F - 61.0 °F 56% 30.04 in 10.0 mi SW 6.9 mph - N/A   Clear
10:54 AM 81.0 °F 81.9 °F 62.1 °F 52% 30.03 in 10.0 mi South 10.4 mph - N/A   Clear
11:54 AM 82.9 °F 83.7 °F 62.1 °F 49% 30.01 in 10.0 mi South 12.7 mph 16.1 mph N/A   Clear
12:54 PM 84.9 °F 84.4 °F 59.0 °F 41% 30.00 in 10.0 mi South 11.5 mph 18.4 mph N/A   Clear
1:54 PM 84.9 °F 83.9 °F 57.0 °F 38% 29.99 in 10.0 mi South 12.7 mph 21.9 mph N/A   Clear
2:54 PM 86.0 °F 84.5 °F 55.0 °F 35% 29.98 in 10.0 mi SSW 13.8 mph 25.3 mph N/A   Clear
3:54 PM 86.0 °F 84.9 °F 57.0 °F 37% 29.98 in 10.0 mi SSW 9.2 mph 19.6 mph N/A   Clear
4:54 PM 84.9 °F 83.7 °F 55.9 °F 37% 29.97 in 10.0 mi South 16.1 mph 21.9 mph N/A   Clear
5:54 PM 84.0 °F 83.3 °F 57.0 °F 40% 29.96 in 10.0 mi SSW 11.5 mph 19.6 mph N/A   Clear
6:54 PM 82.0 °F 82.1 °F 59.0 °F 45% 29.96 in 10.0 mi SSW 12.7 mph - N/A   Clear
7:54 PM 79.0 °F - 60.1 °F 52% 29.96 in 10.0 mi SSW 6.9 mph - N/A   Clear
8:54 PM 75.0 °F - 60.1 °F 60% 29.97 in 10.0 mi South 5.8 mph - N/A   Clear
9:54 PM 71.1 °F - 61.0 °F 70% 29.97 in 10.0 mi SSE 4.6 mph - N/A   Clear
10:54 PM 70.0 °F - 61.0 °F 73% 29.98 in 10.0 mi South 6.9 mph - N/A   Clear
11:54 PM 71.1 °F - 62.1 °F 73% 29.99 in 10.0 mi South 5.8 mph - N/A   Clear